Change the Weather History Date:

Friday, February 7, 2014

  Actual Average (KCYS) Record (KCYS)
Temperature  
Mean Temperature 14 °F 28 °F  
Max Temperature 33 °F 39 °F 64 °F (1987)
Min Temperature -4 °F 18 °F -30 °F (1936)
Degree Days  
Heating Degree Days 50 37  
Month to date heating degree days 259  
Since 1 July heating degree days 4286  
Cooling Degree Days 0 0  
Month to date cooling degree days 0  
Year to date cooling degree days 0  
Moisture  
Dew Point 11 °F    
Average Humidity 72    
Maximum Humidity 88    
Minimum Humidity 49    
Precipitation  
Precipitation 0.01 in 0.02 in 0.43 in (1980)
Month to date precipitation 0.10  
Year to date precipitation 0.43  
Snow  
Snow 0.00 in 0.20 in 4.50 in (1980)
Month to date snowfall 1.8  
Since 1 July snowfall 30.4  
Snow Depth 5.00 in    
Sea Level Pressure  
Sea Level Pressure 30.10 in    
Wind  
Wind Speed 8 mph (WSW)    
Max Wind Speed 18 mph    
Max Gust Speed 16 mph    
Visibility 12 miles    
Events      
T = Trace of Precipitation, MM = Missing Value Source: NWS Daily Summary

Daily Weather History Graph

Daily Weather History Graph

Search for Another Location

Airport or City:

Trip Planner

Search our weather history database for the weather conditions in past years. The results will help you decide how hot, cold, wet, or windy it might be!

Date:

Astronomy

Feb. 07, 2014 Rise Set
Actual Time 7:03 AM MST 5:23 PM MST
Civil Twilight 6:35 AM MST 5:52 PM MST
Nautical Twilight 6:02 AM MST 6:25 PM MST
Astronomical Twilight 5:30 AM MST 6:57 PM MST
Moon 11:36 AM MST (2/7) 1:22 AM MST (2/7)
Length of Visible Light 11h 17m
Length of Day
10h 20m
First Quarter, 60% of the Moon is Illuminated
Feb 7
First Quarter
Feb 14
Full
Feb 22
Last Quarter
Mar 1
New
Mar 8
First Quarter

Hourly Weather History & Observations

Time (MST) Temp. Windchill Dew Point Humidity Pressure Visibility Wind Dir Wind Speed Gust Speed Precip Events Conditions
4:56 AM -0.6 °F -8.5 °F -5.1 °F 81% 30.13 in 12.0 mi NW 3.5 mph - N/A   Partly Cloudy
5:56 AM -4.4 °F - -11.0 °F 73% 30.16 in 12.0 mi Variable 2.3 mph - N/A   Clear
6:56 AM -1.5 °F - -4.4 °F 88% 30.16 in 12.0 mi NW 2.3 mph - N/A   Clear
7:56 AM 14.4 °F 1.6 °F 7.2 °F 73% 30.09 in 12.0 mi WSW 10.4 mph - N/A   Clear
7:57 AM 14.5 °F 1.9 °F 7.7 °F 74% 30.46 in 10.0 mi SW 10.4 mph - N/A   Clear
8:56 AM 16.2 °F 3.2 °F 9.0 °F 73% 30.08 in 12.0 mi SW 11.5 mph - N/A   Clear
8:58 AM 16.7 °F 4.5 °F 9.3 °F 73% 30.48 in 10.0 mi SSW 10.4 mph - N/A   Clear
9:55 AM 24.4 °F 13.0 °F 14.7 °F 67% 30.43 in 10.0 mi SW 12.7 mph - N/A   Clear
9:56 AM 24.4 °F 13.0 °F 14.7 °F 67% 30.06 in 12.0 mi WSW 12.7 mph - N/A   Clear
10:56 AM 26.6 °F 17.5 °F 15.8 °F 64% 30.04 in 12.0 mi South 9.2 mph - 0.01 in   Clear
10:58 AM 26.6 °F 17.5 °F 15.4 °F 63% 30.37 in 10.0 mi South 9.2 mph - 0.00 in   Clear
11:56 AM 33.1 °F 23.4 °F 17.4 °F 53% 30.28 in 10.0 mi WSW 13.8 mph - N/A   Partly Cloudy
12:56 PM 33.3 °F 27.1 °F 15.8 °F 49% 30.26 in 10.0 mi SSW 6.9 mph 16.1 mph N/A   Partly Cloudy
3:56 PM 30.2 °F 23.4 °F 21.4 °F 70% 29.97 in 12.0 mi West 6.9 mph - N/A   Clear
4:56 PM 27.1 °F 15.9 °F 21.2 °F 78% 29.99 in 12.0 mi West 13.8 mph - N/A   Clear
5:56 PM 24.3 °F 13.9 °F 15.3 °F 69% 30.03 in 12.0 mi West 10.4 mph - N/A   Clear
6:56 PM 19.8 °F 7.7 °F 13.6 °F 77% 30.05 in 12.0 mi West 11.5 mph - N/A   Clear
7:56 PM 21.2 °F 7.8 °F 14.0 °F 74% 29.76 in 12.0 mi West 15.0 mph - N/A   Scattered Clouds
8:56 PM 25.7 °F 12.3 °F 18.5 °F 74% 29.77 in 12.0 mi West 18.4 mph - N/A   Mostly Cloudy
9:56 PM 21.9 °F 14.5 °F 16.9 °F 81% 29.78 in 12.0 mi West 5.8 mph - N/A   Clear
10:56 PM 19.2 °F 9.3 °F 11.8 °F 73% 29.94 in 12.0 mi SW 8.1 mph - N/A   Clear
11:56 PM 12.7 °F 6.7 °F 8.1 °F 82% 29.96 in 12.0 mi WNW 3.5 mph - N/A   Partly Cloudy